Location: CARMA
(37.2805°N, 118.1419°W)
Time: 01:44:51
(UTC-07:00)

Daily predictions for brighter satellites

Satellite Brightness Start Highest point End
(mag) Time Altitude Azimuth Time Altitude Azimuth Time Altitude Azimuth
ATLAS 3B R/B 4.2 00:57:28 33° NNE 00:57:28 33° NNE 01:01:12 10° NNE
Cosmos 2369 Rocket 4.5 02:02:12 10° NNE 02:05:59 18° NE 02:06:18 18° ENE
SL-16 R/B 4.2 02:29:10 22° NNW 02:29:10 22° NNW 02:31:26 10° N
ATLAS 3B R/B 4.5 02:44:43 22° NW 02:45:23 22° NW 02:50:57 10° N
CZ-3A R/B 3.8 02:44:24 70° SSE 02:45:32 76° SE 03:30:33 10° NE
CZ-4C R/B 3.9 02:51:33 27° NNW 02:51:33 27° NNW 02:55:05 10° NNE
ATLAS 5 CENTAUR R/B 3.8 02:56:50 25° ENE 02:56:50 25° ENE 02:59:19 10° NE
BREEZE-M DEB (TANK) 4.3 03:07:03 54° NW 03:07:07 54° NW 03:11:29 10° NE
SL-16 R/B 3.2 03:08:38 46° ESE 03:09:42 51° ENE 03:15:40 10° N
IRS-1D 4.3 03:14:17 10° NNE 03:18:23 50° NE 03:18:23 50° NE
Cosmos 1709 Rocket 4.3 03:18:56 10° N 03:25:13 62° E 03:26:15 55° ESE
CZ-2D R/B 2.7 03:20:37 10° NNE 03:25:09 53° ENE 03:25:09 53° ENE
ARIANE 5 R/B 3.1 03:21:41 10° NNE 03:25:47 55° NNE 03:25:47 55° NNE
ADEOS 4.5 03:28:27 10° N 03:31:58 40° NNW 03:31:58 40° NNW
Meteor 2-3 Rocket 4.3 03:31:29 10° NNW 03:35:46 50° NNW 03:35:46 50° NNW
USA 234 3.1 03:30:55 10° NE 03:37:29 82° NW 03:38:01 76° WSW
Cosmos 1943 3.8 03:38:42 47° NNW 03:38:42 47° NNW 03:43:14 10° NNE
COSMOS 2406 4.4 03:40:43 31° SE 03:42:17 36° ESE 03:47:30 10° NE
Cosmos 1455 3.9 03:47:04 31° NNE 03:47:04 31° NNE 03:49:12 10° N
Atlas Centaur 2 4.2 03:47:32 11° SE 03:47:32 11° SE 03:47:46 10° SE
Cosmos 2369 Rocket 3.2 03:44:54 10° NNW 03:47:59 33° NW 03:47:59 33° NW
CZ-2D R/B 4.3 03:46:17 10° NNE 03:50:17 49° E 03:50:17 49° E
Resurs 1-4 Rocket 2.1 03:50:57 10° N 03:55:55 69° NW 03:55:55 69° NW
MOS 1-B 4.3 03:51:51 10° NNE 03:57:40 82° ESE 03:58:48 60° S
SL-27 R/B 3.8 04:00:54 40° ENE 04:00:54 40° ENE 04:03:33 10° NNE
Okean O Rocket 2.7 03:58:01 10° NNE 04:02:16 41° E 04:03:31 33° SE
ARGOS Delta rocket 3.8 04:04:03 10° NNE 04:08:26 66° E 04:09:00 59° SE
CENTAUR R/B 2.4 04:07:19 57° SSW 04:08:45 88° WNW 04:15:32 10° NNE
Cosmos 1943 Rocket 2.2 04:03:31 10° NNW 04:09:12 77° ENE 04:14:49 10° SSE
Sich 1 Rocket 3.9 04:13:04 10° N 04:17:26 65° E 04:19:50 26° SSE
Cosmos 2315 Rocket 4.3 04:20:56 42° W 04:21:38 43° WNW 04:27:36 10° N
Cosmos 1825 3.1 04:18:50 10° N 04:22:31 47° E 04:25:15 16° SSE
Cosmos 2285 Rocket 4.4 04:18:05 10° NNW 04:24:28 64° ENE 04:30:47 10° SSE
IRS-1C Rocket 4.0 04:23:14 10° NNE 04:28:33 87° ESE 04:31:10 31° SSW
PAYLOAD B 4.2 04:30:07 10° NNE 04:35:40 81° ESE 04:39:38 20° S
Cosmos 1862 Rocket 4.2 04:35:58 37° WNW 04:35:58 37° WNW 04:39:49 10° N
Cosmos 1656 Rocket 4.1 04:32:52 10° NNW 04:38:14 62° ENE 04:43:35 10° SSE
ATLAS 5 CENTAUR R/B 3.0 04:38:24 25° WNW 04:39:26 27° NW 04:43:51 10° NNE
Okean 1-7 3.6 04:40:30 11° S 04:44:27 57° E 04:48:44 10° NNE
BREEZE-M DEB (TANK) 2.4 04:47:42 70° SW 04:47:58 89° E 04:51:57 10° NE
UNKNOWN OBJECT B 4.4 04:45:46 10° NNW 04:47:50 20° NW 04:47:50 20° NW
Cosmos 407 Rocket 3.9 04:44:29 13° S 04:48:59 64° ESE 04:54:13 10° NNE
Cosmos 1862 3.2 04:45:48 10° NNW 04:49:44 65° W 04:52:21 20° S
Okean 2 Rocket 3.6 04:48:44 10° N 04:53:12 61° E 04:57:40 10° SSE
SL-16 R/B 3.6 04:53:44 23° W 04:53:44 23° W 04:58:18 10° NW
CZ-2C R/B 3.6 04:50:43 10° S 04:55:05 57° W 04:59:28 10° NNW
Cosmos 389 Rocket 4.1 04:57:23 19° WNW 04:57:23 19° WNW 04:59:25 10° NNW
Meteor 1-26 Rocket 4.3 04:56:11 10° S 05:02:00 88° E 05:07:56 10° N
SeaSat 1 2.5 04:57:58 10° S 05:02:46 53° WSW 05:07:35 10° NW
ARIANE 5 R/B 4.5 05:03:16 10° NW 05:05:20 12° WNW 05:06:07 12° WNW
CZ-2D R/B 3.7 05:02:10 10° NNW 05:05:22 16° WNW 05:06:28 15° WNW
Nadezhda 1 Rocket 4.1 04:59:45 12° SSW 05:05:27 59° W 05:11:43 10° N
GPS 2-05 Rocket1 3.5 05:05:59 27° SSW 05:07:13 39° SSE 05:10:20 10° E
AVUM R/B 3.1 05:05:31 24° SSW 05:07:17 86° ESE 05:10:37 10° NNE
Cosmos 1933 4.2 05:06:08 26° WSW 05:07:23 32° WNW 05:11:05 10° NNW
Cosmos 1782 Rocket 3.5 05:07:53 10° NNW 05:12:11 63° W 05:16:27 10° S
CZ-4B R/B 3.3 05:09:17 10° N 05:12:43 38° WNW 05:14:48 21° SW
Meteor 1-14 Rocket 4.4 05:10:07 10° N 05:15:59 84° E 05:21:56 10° S
Geosat 4.0 05:11:57 10° NNE 05:17:01 88° WNW 05:22:02 10° SSW
COSMOS 2487 2.5 05:15:21 16° SSW 05:18:03 61° WNW 05:21:38 10° N
BREEZE-M DEB (TANK) 4.4 05:13:44 10° WNW 05:18:08 65° SW 05:31:34 10° SE
Cosmos 2181 Rocket 4.2 05:14:02 10° S 05:20:28 80° E 05:26:53 10° N
Meteor PRIRODA 3.8 05:17:22 10° NNE 05:21:08 78° E 05:24:54 10° S
COSMOS 2406 4.2 05:22:50 16° WSW 05:26:36 30° WNW 05:31:37 10° N
Cosmos 1782 4.0 05:24:30 10° SSE 05:28:20 46° E 05:32:13 10° NNE
Abrixas rocket 4.1 05:26:01 10° NW 05:29:02 30° NNE 05:32:02 10° E
Atlas Centaur 2 2.9 05:30:12 12° SW 05:33:47 33° SSE 05:38:39 10° ESE
Cosmos 2154 Rocket 4.2 05:31:15 10° NNW 05:37:24 55° W 05:43:32 10° SSW
Okean O Rocket 3.3 05:35:27 10° NNW 05:38:17 17° WNW 05:40:58 10° WSW
CZ-4B R/B 4.1 05:34:05 10° N 05:38:31 28° WNW 05:42:56 10° SW
Cosmos 1606 4.4 05:36:40 10° SSE 05:40:18 37° E 05:43:57 10° NNE
PSLV R/B 3.2 05:38:05 10° WNW 05:41:33 88° SSW 05:44:56 10° ESE
Thor Agena Rocket 4.1 05:37:10 10° SSW 05:41:49 35° W 05:46:34 10° NNW
Meteor 2-10 Rocket 3.8 05:36:45 10° SSW 05:42:34 76° W 05:48:18 10° N
Cosmos 1408 4.4 05:40:52 10° NW 05:42:51 14° W 05:44:49 10° WSW
Timation 2 Rocket 4.5 05:37:57 10° S 05:44:08 64° ESE 05:50:08 10° NNE
Okean-O 3.1 05:41:40 10° N 05:45:51 42° WNW 05:50:01 10° SW
ADEOS II 2.3 05:43:16 10° N 05:48:19 51° WNW 05:53:23 10° SSW
BREEZE-M DEB (TANK) 2.5 05:46:25 10° WNW 05:48:38 46° SW 05:52:37 10° SE
COBE Rocket 4.3 05:43:51 10° NNE 05:49:02 73° E 05:54:04 10° S
ADEOS Rocket 3.8 05:43:42 10° N 05:51:11 54° WNW 05:58:34 10° SW
Cosmos 1943 Rocket 3.8 05:50:03 10° WNW 05:52:09 12° W 05:54:14 10° WSW
Cosmos 1954 Rocket 4.2 05:49:41 10° SSW 05:54:44 55° WNW 05:59:51 10° N
Cosmos 2082 Rocket 2.9 05:50:20 10° S 05:55:55 59° ESE 06:01:32 10° NNE
CZ-3 R/B 4.3 05:29:05 10° W 05:57:13 30° SW 06:06:06 10° S
